User: anonymous   Login
Location: ActonStarParty
(42.4766°N, 71.4538°W)
Time: 16:41:49
(UTC-04:00)
Language:

ITAMSAT 1 - Orbit

View from above orbital plane
View from above orbital plane
View from above satellite
View from above satellite

Ground track
Ground track

The orbit data is extracted from the following two-line orbital elements,

1 22826U 93061D   16121.41938395  .00000048  00000-0  35860-4 0  9990
2 22826  98.7493  77.5125 0010108  88.7689 271.4651 14.30275697178573
Epoch (UTC): 30 April 2016 10:03:54
Eccentricity: 0.0010108
inclination: 98.7493°
perigee height: 783 km
apogee height: 798 km
right ascension of ascending node: 77.5125°
argument of perigee: 88.7689°
revolutions per day: 14.30275697
mean anomaly at epoch: 271.4651°
orbit number at epoch: 17857

The dashed part of the orbit path shows where the satellite is in the earth's shadow,  

DLR